www.pogodaiklimat.ru

Погода и климат >> Архив погоды >> Мадагаскар >> Sambava


ПОГОДА в Sambava

  • Прогноз погоды в Sambava
  • Монитор погоды в Sambava
  • Климат города

АРХИВ ПОГОДЫ в Sambava

Время (UTC), дата Ветер
(напр.,м/с)
 
Видим.   Явления Облачность Т
(С)
Тd
(С)
f
(%)
Тe
(С)
Тes
(С)
Комфортность P
(гПа)
Po
(гПа)
Тmin
(С)
Tmax
(С)
R
(мм)
R24
(мм)
S
(см)
03 11.10 ЮВ 5 25 км осадки на расстоянии 5/5 500 м
[Cu Sc]
+24.0 +20.4 80 +30 +30 очень
душно
1017.4 1016.8 7
06 11.10 Ю 6 25 км осадки на расстоянии 9/9 500 м
[Cu Sc]
+27.4 +21.2 69 +35 +35 очень
душно
1019.2 1018.6 +22.0 +28.2 7
09 11.10 Ю 6 40 км 4/4 600 м
[Cu Sc]
+27.6 +20.4 65 +34 +39 очень
душно
1017.8 1017.2
12 11.10 Ю 6 25 км осадки на расстоянии 5/5 500 м
[Cu med, cong]
+27.0 +20.4 67 +33 +35 очень
душно
1016.2 1015.6
15 11.10 Ю 4 20 км в посл. час дождь 8/8 500 м
[Cu Sc]
+23.6 +21.8 90 +30 +30 очень
душно
1017.1 1016.5 +28.5 0.4
03 12.10 ЮЗ 4 25 км в посл. час дождь 9/9 500 м
[Cu Sc]
+21.0 +20.4 96 +26 +26 душно 1017.4 1016.8 7
06 12.10 Ю 6 25 км осадки на расстоянии {дождь} 8/8 500 м
[Cu Sc]
+26.5 +20.3 69 +33 +34 очень
душно
1018.4 1017.8 +20.8 +28.5 8
09 12.10 Ю 6 40 км 6/6 600 м
[Cu med, cong]
+28.0 +20.8 65 +35 +38 очень
душно
1017.5 1016.9
12 12.10 Ю 6 40 км 8/3 600 м
[Cu med, cong Ac trans]
+26.5 +20.3 69 +33 +34 очень
душно
1015.2 1014.6
15 12.10 Ю 4 25 км осадки на расстоянии 9/9 500 м
[Cu Sc]
+23.6 +20.3 82 +29 +29 душно 1016.4 1015.8 +28.2
03 13.10 ЮЗ 3 40 км {дождь} 9/9 600 м
[Cu Sc]
+20.6 +20.0 96 +25 +25 комфорт 1017.0 1016.4 0.9
06 13.10 Ю 5 25 км осадки на расстоянии {дождь} 8/8 500 м
[Cu Sc]
+24.6 +20.4 77 +30 +32 очень
душно
1017.8 1017.2 +20.0 +28.2 0.9
03 14.10 З 3 40 км 9/9 600 м
[Cu Sc]
+22.0 +19.7 87 +28 +28 душно 1016.3 1015.7
06 14.10 Ю 6 40 км 6/6 600 м
[Cu Sc]
+26.6 +20.6 70 +33 +35 очень
душно
1017.6 1017.0 +21.8 +28.5
03 15.10 З 2 40 км 4/4 600 м
[Cu Sc]
+20.2 +18.6 91 +24 +24 комфорт 1016.7 1016.1
06 15.10 З 4 25 км осадки на расстоянии 9/9 500 м
[Cu Sc]
+25.8 +20.4 72 +32 +33 очень
душно
1018.1 1017.5 +20.0 +28.5
09 15.10 Ю 6 25 км осадки на расстоянии 8/8 500 м
[Cu Sc]
+28.2 +20.7 64 +35 +37 очень
душно
1016.7 1016.1
12 15.10 ЮВ 6 40 км 1/1 600 м
[Cu med, cong]
+27.2 +20.9 68 +34 +37 очень
душно
1015.3 1014.7
15 15.10 ЮВ 5 35 км 8/5 600 м
[Cu Sc Ac trans Cs]
+24.6 +20.7 79 +31 +31 очень
душно
1016.6 1016.0 +28.6
03 16.10 Ю 2 25 км осадки на расстоянии 9/9 500 м
[Cu Sc]
+22.0 +21.0 94 +28 +28 душно 1017.0 1016.4
06 16.10 Ю 5 40 км 5/4 600 м
[Cu med, cong]
+27.4 +21.2 69 +35 +38 очень
душно
1017.9 1017.3 +21.6 +28.6
09 16.10 Ю 5 40 км 1/1 600 м
[Cu med, cong]
+28.0 +20.5 64 +35 +45 очень
душно
1016.4 1015.8
12 16.10 В 5 40 км 1/1 600 м
[Cu med, cong]
+27.8 +21.3 68 +35 +40 очень
душно
1014.7 1014.1
15 16.10 Ю 2 35 км 3/1 600 м
[Cu Sc Ac trans]
+24.2 +21.2 83 +31 +31 очень
душно
1015.9 1015.3 +28.2
03 17.10 ЮЗ 1 40 км 9/9 600 м
[Cu Sc]
+21.6 +20.7 95 +27 +27 душно 1016.1 1015.5
06 17.10 С 4 40 км 3/3 600 м
[Cu med, cong]
+26.6 +20.9 71 +33 +40 очень
душно
1016.1 1016.5 +20.6 +28.2
09 17.10 В 5 40 км 1/1 600 м
[Cu med, cong]
+28.0 +22.4 72 +37 +47 очень
душно
1014.6 1014.0
12 17.10 В 5 40 км 1/1 600 м
[Cu med, cong]
+22.0 +20.8 93 +28 +33 душно 1012.3 1011.7
15 17.10 СВ 1 35 км 8/8 600 м
[Cu Sc]
+24.8 +20.2 76 +31 +31 очень
душно
1013.4 1012.8 +29.0

 

Местоположение метеостанции Sambava (Мадагаскар): широта -14.28 долгота 50.17 высота над уровнем моря 5 м.

В архиве по умолчанию представлена погода в Sambava за последнюю неделю. Архивные данные за месяц целиком и за предыдущие месяцы, начиная с января 2011 года, Вы можете получить, выбрав интересующий диапазон дат из раскрывающегося списка и нажав кнопку "Ввод!".


*Определитесь, кто Вы:
робот инопланетянин человек

Внимание! Время в таблицах - всемирное. Для получения местного времени необходимо прибавить поправку, которая в Sambava равна 3 ч.

Смотрите также архив погоды в соседних городах и на ближайших метеорологических станциях:

Погода в Antalaha (Мадагаскар) (67 км)
Погода в Fascene (Мадагаскар) (227 км)
Погода в Antsiranana (Мадагаскар) (234 км)
Погода в Antsohihy (Мадагаскар) (245 км)
Погода в Nosy Boraha (Мадагаскар) (314 км)
Погода в Ambohitsilaozana (Мадагаскар) (413 км)
Погода в Toamasina (Мадагаскар) (434 км)
Погода в Mahajanga (Мадагаскар) (438 км)
Погода в Glorieuses Island (Реюньон) (446 км)
Погода в Serge-Frolow (Реюньон) (495 км)

Пояснения к столбцам:

Ветер - указаны скорость ветра в м/с - средняя за 10 мин, порывы в срок и между сроками (в фигурных скобках) и направление, откуда дует ветер: С - северный, СВ - северо-восточный, В - восточный, ЮВ - юго-восточный, Ю - южный, ЮЗ - юго-западный, З - западный, СЗ - северо-западный.
Видимость - горизонтальная дальность видимости в метрах или километрах. При видимости от 1 до 10 км при отсутствии осадков обычно наблюдается дымка, при ухудшении видимости до 1 км и менее - туман. В сухую погоду видимость может ухудшаться дымом, пылью или мглою.
Явления - указаны атмосферные явления, наблюдавшиеся в срок или в последний час перед сроком; фигурными скобками обозначены явления, наблюдавшиеся между сроками (за 1-3 часа до срока); квадратными скобками обозначены град или гололедные отложения с указанием их диаметра в мм.
Облачность - указаны через наклонную черту общая и нижняя облачность в баллах и высота нижней границы облаков в метрах; квадратными скобками обозначены формы облаков: Ci - перистые, Cs - перисто-слоистые, Cc - перисто-кучевые, Ac - высококучевые, As - высокослоистые, Sc - слоисто-кучевые, Ns - слоисто-дождевые, Cu - кучевые, Cb - кучево-дождевые. Подробнее классификацию облаков см. в Атласе облаков (PDF).
T - Температура воздуха - температура, измеренная на высоте 2 м над землей.
Td - Температура точки росы - температура, при понижении до которой содержащийся в воздухе водяной пар достигнет насыщения.
f - Относительная влажность воздуха - влажноcть воздуха, измеренная на высоте 2 м над землей.
Te - Эффективная температура - температура, которую ощущает одетый по сезону человек в тени. Характеристика душности погоды. При расчете учитывается влияние влажности воздуха и скорости ветра на теплоощущения человека.
Tes - Эффективная температура на солнце - температура, которую ощущает человек, с поправкой на солнечный нагрев. Характеристика знойности погоды. Зависит от высоты солнца над горизонтом, облачности и скорости ветра. Ночью, в пасмурную погоду, а также при ветре 12 м/с и более поправка равна нулю.
P - Атмосферное давление - приведенное к уровню моря атмосферное давление.
Po - Атмосферное давление - измеренное на уровне метеостанции атмосферное давление.
Tmin - Минимальная температура - минимум температуры воздуха на высоте 2 м над землей.
Tmax - Максимальная температура - максимум температуры воздуха на высоте 2 м над землей.
R - Количество осадков - Количество выпавших осадков за период времени, мм. При наведении курсора мыши на число - период времени, за который выпало указанное количество осадков.
R24 - Количество осадков - Количество выпавших осадков за 24 часа, мм.
S - Снежный покров - Высота снежного покрова, см. При наведении курсора мыши на число - состояние снежного покрова и степень покрытия местности в баллах.